Torna al catalogo

STARLINK-5788

AttivoComunicazioniVLEO
NORAD 57148·PAYLOAD·🇺🇸 United States

Lanciato Jun 23, 2023 da Cape Canaveral Space Force Station

Loading…

Prossimi Passaggi (prossime 24 ore)

TLE

AggiornatoSource: CelesTrak SupGP

Epoca: Sep 14, 2026, 14:12 UTC

1 57148C 23090AZ  26257.59215278  .00017707  00000+0  64123-3 0  2577
2 57148  42.9998 276.8475 0001339 270.5282 307.4003 15.27575541    19

Traccia STARLINK-5788 in tempo reale con AllMySat

Download on the App Store